Time,TemperatureF,DewpointF,PressureIn,WindDirection,WindDirectionDegrees,WindSpeedMPH,WindSpeedGustMPH,Humidity,HourlyPrecipIn,Conditions,Clouds,dailyrainin,SoftwareType,DateUTC
2013-09-24 00:00:00,54.2,51.0,30.01,SE,132,8.5,-999.0,88,0.00,,,0.00,SSEC-RIG,2013-09-24 05:00:00,
2013-09-24 00:05:00,54.1,50.9,30.01,SE,127,7.8,-999.0,88,0.00,,,0.00,SSEC-RIG,2013-09-24 05:05:00,
2013-09-24 00:10:00,54.0,50.9,30.01,SE,132,6.8,-999.0,88,0.00,,,0.00,SSEC-RIG,2013-09-24 05:10:00,
2013-09-24 00:15:00,53.7,50.5,30.01,SE,124,7.9,-999.0,88,0.00,,,0.00,SSEC-RIG,2013-09-24 05:15:00,
2013-09-24 00:20:00,53.9,50.9,30.01,SE,129,7.8,-999.0,88,0.00,,,0.00,SSEC-RIG,2013-09-24 05:20:00,
2013-09-24 00:25:00,53.9,50.8,30.01,SE,131,7.9,-999.0,88,0.00,,,0.00,SSEC-RIG,2013-09-24 05:25:00,
2013-09-24 00:30:00,53.9,50.8,30.01,SE,128,8.6,-999.0,88,0.00,,,0.00,SSEC-RIG,2013-09-24 05:30:00,
2013-09-24 00:35:00,53.9,51.1,30.01,SE,132,7.2,-999.0,89,0.00,,,0.00,SSEC-RIG,2013-09-24 05:35:00,
2013-09-24 00:40:00,53.9,51.1,30.01,SE,132,8.1,-999.0,89,0.00,,,0.00,SSEC-RIG,2013-09-24 05:40:00,
2013-09-24 00:45:00,53.7,50.8,30.01,SE,131,7.7,-999.0,89,0.00,,,0.00,SSEC-RIG,2013-09-24 05:45:00,
2013-09-24 00:50:00,53.7,51.0,30.01,SE,136,6.7,-999.0,89,0.00,,,0.00,SSEC-RIG,2013-09-24 05:50:00,
2013-09-24 00:55:00,53.5,50.6,30.01,SE,136,6.3,-999.0,89,0.00,,,0.00,SSEC-RIG,2013-09-24 05:55:00,
2013-09-24 01:00:00,53.3,50.4,30.01,SE,138,6.1,-999.0,89,0.00,,,0.00,SSEC-RIG,2013-09-24 06:00:00,
2013-09-24 01:05:00,53.5,51.0,30.01,SE,135,6.8,-999.0,90,0.00,,,0.00,SSEC-RIG,2013-09-24 06:05:00,
2013-09-24 01:10:00,53.4,50.8,30.01,SE,132,6.2,-999.0,90,0.00,,,0.00,SSEC-RIG,2013-09-24 06:10:00,
2013-09-24 01:15:00,53.3,50.8,30.01,SE,137,5.9,-999.0,90,0.00,,,0.00,SSEC-RIG,2013-09-24 06:15:00,
2013-09-24 01:20:00,53.5,51.2,30.01,SE,137,6.3,-999.0,91,0.00,,,0.00,SSEC-RIG,2013-09-24 06:20:00,
2013-09-24 01:25:00,53.3,51.0,30.01,SE,137,6.4,-999.0,91,0.00,,,0.00,SSEC-RIG,2013-09-24 06:25:00,
2013-09-24 01:30:00,53.0,50.6,30.01,SE,134,5.0,-999.0,90,0.00,,,0.00,SSEC-RIG,2013-09-24 06:30:00,
2013-09-24 01:35:00,53.2,51.0,30.01,SE,128,5.8,-999.0,91,0.00,,,0.00,SSEC-RIG,2013-09-24 06:35:00,
2013-09-24 01:40:00,53.7,51.9,30.01,SE,126,7.8,-999.0,92,0.00,,,0.00,SSEC-RIG,2013-09-24 06:40:00,
2013-09-24 01:45:00,53.1,51.1,30.01,ESE,123,7.9,-999.0,92,0.00,,,0.00,SSEC-RIG,2013-09-24 06:45:00,
2013-09-24 01:50:00,52.8,50.7,30.01,SE,124,8.0,-999.0,92,0.00,,,0.00,SSEC-RIG,2013-09-24 06:50:00,
2013-09-24 01:55:00,53.0,51.0,30.01,SE,124,7.4,-999.0,92,0.00,,,0.00,SSEC-RIG,2013-09-24 06:55:00,
2013-09-24 02:00:00,52.8,50.7,30.01,ESE,121,7.5,-999.0,92,0.00,,,0.00,SSEC-RIG,2013-09-24 07:00:00,
2013-09-24 02:05:00,52.6,50.4,30.01,ESE,117,6.8,-999.0,91,0.00,,,0.00,SSEC-RIG,2013-09-24 07:05:00,
2013-09-24 02:10:00,52.8,50.7,30.01,ESE,121,5.3,-999.0,92,0.00,,,0.00,SSEC-RIG,2013-09-24 07:10:00,
2013-09-24 02:15:00,52.8,50.9,30.01,SE,130,5.3,-999.0,92,0.00,,,0.00,SSEC-RIG,2013-09-24 07:15:00,
2013-09-24 02:20:00,52.8,51.0,30.01,SE,127,6.2,-999.0,93,0.00,,,0.00,SSEC-RIG,2013-09-24 07:20:00,
2013-09-24 02:25:00,53.2,51.8,30.01,SE,136,6.7,-999.0,94,0.00,,,0.00,SSEC-RIG,2013-09-24 07:25:00,
2013-09-24 02:30:00,53.2,51.8,30.01,SE,134,5.8,-999.0,94,0.00,,,0.00,SSEC-RIG,2013-09-24 07:30:00,
2013-09-24 02:35:00,53.2,51.8,30.01,SE,131,7.1,-999.0,94,0.00,,,0.00,SSEC-RIG,2013-09-24 07:35:00,
2013-09-24 02:40:00,52.9,51.6,30.00,SE,134,7.4,-999.0,94,0.00,,,0.00,SSEC-RIG,2013-09-24 07:40:00,
2013-09-24 02:45:00,52.8,51.4,30.00,SE,136,7.8,-999.0,94,0.00,,,0.00,SSEC-RIG,2013-09-24 07:45:00,
2013-09-24 02:50:00,52.7,51.4,30.00,SE,138,8.0,-999.0,94,0.00,,,0.00,SSEC-RIG,2013-09-24 07:50:00,
2013-09-24 02:55:00,52.8,51.7,30.00,SE,136,8.5,-999.0,95,0.00,,,0.00,SSEC-RIG,2013-09-24 07:55:00,
2013-09-24 03:00:00,52.6,51.6,30.00,SE,137,7.5,-999.0,95,0.00,,,0.00,SSEC-RIG,2013-09-24 08:00:00,
2013-09-24 03:05:00,52.6,51.6,30.01,SE,144,6.3,-999.0,95,0.00,,,0.00,SSEC-RIG,2013-09-24 08:05:00,
2013-09-24 03:10:00,52.8,51.6,30.01,SE,146,6.7,-999.0,95,0.00,,,0.00,SSEC-RIG,2013-09-24 08:10:00,
2013-09-24 03:15:00,52.8,51.4,30.01,SE,144,8.2,-999.0,94,0.00,,,0.00,SSEC-RIG,2013-09-24 08:15:00,
2013-09-24 03:20:00,53.1,51.5,30.01,SE,146,8.4,-999.0,93,0.00,,,0.00,SSEC-RIG,2013-09-24 08:20:00,
2013-09-24 03:25:00,52.4,50.8,30.01,SE,142,6.6,-999.0,93,0.00,,,0.00,SSEC-RIG,2013-09-24 08:25:00,
2013-09-24 03:30:00,51.7,50.3,30.01,SE,134,4.8,-999.0,94,0.00,,,0.00,SSEC-RIG,2013-09-24 08:30:00,
2013-09-24 03:35:00,51.5,50.0,30.01,SE,126,4.3,-999.0,93,0.00,,,0.00,SSEC-RIG,2013-09-24 08:35:00,
2013-09-24 03:40:00,51.3,49.8,30.01,SE,136,4.1,-999.0,94,0.00,,,0.00,SSEC-RIG,2013-09-24 08:40:00,
2013-09-24 03:45:00,51.4,50.1,30.01,SE,143,4.7,-999.0,94,0.00,,,0.00,SSEC-RIG,2013-09-24 08:45:00,
2013-09-24 03:50:00,51.7,50.5,30.02,SE,143,4.9,-999.0,95,0.00,,,0.00,SSEC-RIG,2013-09-24 08:50:00,
2013-09-24 03:55:00,52.0,50.8,30.02,SE,144,4.8,-999.0,94,0.00,,,0.00,SSEC-RIG,2013-09-24 08:55:00,
2013-09-24 04:00:00,52.0,50.5,30.02,SE,145,5.2,-999.0,94,0.00,,,0.00,SSEC-RIG,2013-09-24 09:00:00,
2013-09-24 04:05:00,52.5,51.1,30.02,SE,144,5.0,-999.0,94,0.00,,,0.00,SSEC-RIG,2013-09-24 09:05:00,
2013-09-24 04:10:00,52.6,51.3,30.02,SSE,151,5.4,-999.0,94,0.00,,,0.00,SSEC-RIG,2013-09-24 09:10:00,
2013-09-24 04:15:00,52.4,51.0,30.02,SSE,147,5.4,-999.0,94,0.00,,,0.00,SSEC-RIG,2013-09-24 09:15:00,
2013-09-24 04:20:00,51.8,50.4,30.02,SE,143,4.8,-999.0,94,0.00,,,0.00,SSEC-RIG,2013-09-24 09:20:00,
2013-09-24 04:25:00,51.3,49.9,30.02,SE,141,4.9,-999.0,94,0.00,,,0.00,SSEC-RIG,2013-09-24 09:25:00,
2013-09-24 04:30:00,51.6,50.3,30.02,SE,143,6.0,-999.0,94,0.00,,,0.00,SSEC-RIG,2013-09-24 09:30:00,
2013-09-24 04:35:00,51.9,50.7,30.02,SE,145,8.4,-999.0,95,0.00,,,0.00,SSEC-RIG,2013-09-24 09:35:00,
2013-09-24 04:40:00,52.1,50.6,30.01,SE,146,10.8,-999.0,93,0.00,,,0.00,SSEC-RIG,2013-09-24 09:40:00,
2013-09-24 04:45:00,52.2,50.4,30.01,SE,144,11.3,-999.0,93,0.00,,,0.00,SSEC-RIG,2013-09-24 09:45:00,
2013-09-24 04:50:00,52.2,50.5,30.01,SE,143,10.2,-999.0,93,0.00,,,0.00,SSEC-RIG,2013-09-24 09:50:00,
2013-09-24 04:55:00,52.1,50.5,30.01,SE,143,9.5,-999.0,93,0.00,,,0.00,SSEC-RIG,2013-09-24 09:55:00,
2013-09-24 05:00:00,52.1,50.6,30.02,SE,139,8.1,-999.0,93,0.00,,,0.00,SSEC-RIG,2013-09-24 10:00:00,
2013-09-24 05:05:00,52.2,50.7,30.02,SE,138,7.5,-999.0,93,0.00,,,0.00,SSEC-RIG,2013-09-24 10:05:00,
2013-09-24 05:10:00,52.1,50.5,30.02,SE,138,7.5,-999.0,93,0.00,,,0.00,SSEC-RIG,2013-09-24 10:10:00,
2013-09-24 05:15:00,52.2,50.4,30.02,SE,146,7.3,-999.0,93,0.00,,,0.00,SSEC-RIG,2013-09-24 10:15:00,
2013-09-24 05:20:00,52.1,50.3,30.02,SE,141,7.0,-999.0,92,0.00,,,0.00,SSEC-RIG,2013-09-24 10:20:00,
2013-09-24 05:25:00,52.0,50.4,30.02,SE,144,7.0,-999.0,93,0.00,,,0.00,SSEC-RIG,2013-09-24 10:25:00,
2013-09-24 05:30:00,52.2,50.5,30.02,SE,145,6.9,-999.0,93,0.00,,,0.00,SSEC-RIG,2013-09-24 10:30:00,
2013-09-24 05:35:00,52.2,50.2,30.02,SE,145,8.9,-999.0,92,0.00,,,0.00,SSEC-RIG,2013-09-24 10:35:00,
2013-09-24 05:40:00,52.2,49.5,30.02,SE,146,10.2,-999.0,89,0.00,,,0.00,SSEC-RIG,2013-09-24 10:40:00,
2013-09-24 05:45:00,52.1,49.1,30.02,SSE,147,9.0,-999.0,88,0.00,,,0.00,SSEC-RIG,2013-09-24 10:45:00,
2013-09-24 05:50:00,52.0,49.2,30.02,SE,146,9.4,-999.0,89,0.00,,,0.00,SSEC-RIG,2013-09-24 10:50:00,
2013-09-24 05:55:00,51.9,48.7,30.02,SSE,149,9.9,-999.0,88,0.00,,,0.00,SSEC-RIG,2013-09-24 10:55:00,
2013-09-24 06:00:00,51.9,48.9,30.02,SSE,147,9.3,-999.0,88,0.00,,,0.00,SSEC-RIG,2013-09-24 11:00:00,
2013-09-24 06:05:00,51.9,49.0,30.02,SSE,147,9.7,-999.0,89,0.00,,,0.00,SSEC-RIG,2013-09-24 11:05:00,
2013-09-24 06:10:00,51.8,48.8,30.02,SE,144,9.7,-999.0,88,0.00,,,0.00,SSEC-RIG,2013-09-24 11:10:00,
2013-09-24 06:15:00,51.8,48.9,30.02,SE,144,9.6,-999.0,89,0.00,,,0.00,SSEC-RIG,2013-09-24 11:15:00,
2013-09-24 06:20:00,51.8,48.9,30.02,SE,142,8.2,-999.0,89,0.00,,,0.00,SSEC-RIG,2013-09-24 11:20:00,
2013-09-24 06:25:00,51.7,49.0,30.01,SE,143,7.0,-999.0,89,0.00,,,0.00,SSEC-RIG,2013-09-24 11:25:00,
2013-09-24 06:30:00,52.1,49.5,30.01,SE,138,8.1,-999.0,90,0.00,,,0.00,SSEC-RIG,2013-09-24 11:30:00,
2013-09-24 06:35:00,52.2,49.7,30.01,SE,139,7.2,-999.0,90,0.00,,,0.00,SSEC-RIG,2013-09-24 11:35:00,
2013-09-24 06:40:00,52.1,49.8,30.01,SE,135,7.4,-999.0,91,0.00,,,0.00,SSEC-RIG,2013-09-24 11:40:00,
2013-09-24 06:45:00,52.0,49.7,30.02,SE,130,5.8,-999.0,91,0.00,,,0.00,SSEC-RIG,2013-09-24 11:45:00,
2013-09-24 06:50:00,51.9,49.5,30.02,SE,135,6.3,-999.0,91,0.00,,,0.00,SSEC-RIG,2013-09-24 11:50:00,
2013-09-24 06:55:00,51.8,49.4,30.02,SE,129,4.8,-999.0,90,0.00,,,0.00,SSEC-RIG,2013-09-24 11:55:00,
2013-09-24 07:00:00,52.0,49.7,30.02,SE,133,6.6,-999.0,91,0.00,,,0.00,SSEC-RIG,2013-09-24 12:00:00,
2013-09-24 07:05:00,52.1,49.9,30.02,SE,132,7.5,-999.0,91,0.00,,,0.00,SSEC-RIG,2013-09-24 12:05:00,
2013-09-24 07:10:00,51.9,49.4,30.02,SE,126,8.8,-999.0,90,0.00,,,0.00,SSEC-RIG,2013-09-24 12:10:00,
2013-09-24 07:15:00,51.8,49.2,30.02,SE,130,9.2,-999.0,90,0.00,,,0.00,SSEC-RIG,2013-09-24 12:15:00,
2013-09-24 07:20:00,51.8,49.3,30.02,SE,133,8.6,-999.0,90,0.00,,,0.00,SSEC-RIG,2013-09-24 12:20:00,
2013-09-24 07:25:00,51.7,49.0,30.02,SE,130,8.8,-999.0,90,0.00,,,0.00,SSEC-RIG,2013-09-24 12:25:00,
2013-09-24 07:30:00,51.4,48.6,30.02,SE,126,8.6,-999.0,89,0.00,,,0.00,SSEC-RIG,2013-09-24 12:30:00,
2013-09-24 07:35:00,51.5,48.7,30.02,SE,131,7.6,-999.0,89,0.00,,,0.00,SSEC-RIG,2013-09-24 12:35:00,
2013-09-24 07:40:00,51.8,48.9,30.02,SE,137,6.7,-999.0,89,0.00,,,0.00,SSEC-RIG,2013-09-24 12:40:00,
2013-09-24 07:45:00,51.6,48.4,30.02,SE,127,6.1,-999.0,88,0.00,,,0.00,SSEC-RIG,2013-09-24 12:45:00,
2013-09-24 07:50:00,51.7,48.3,30.02,SE,137,7.4,-999.0,87,0.00,,,0.00,SSEC-RIG,2013-09-24 12:50:00,
2013-09-24 08:00:00,51.8,48.3,30.02,SE,135,9.4,-999.0,87,0.00,,,0.00,SSEC-RIG,2013-09-24 13:00:00,
2013-09-24 08:05:00,52.0,48.3,30.02,SE,131,8.0,-999.0,86,0.00,,,0.00,SSEC-RIG,2013-09-24 13:05:00,
2013-09-24 08:10:00,52.2,48.5,30.02,SE,136,7.9,-999.0,86,0.00,,,0.00,SSEC-RIG,2013-09-24 13:10:00,
2013-09-24 08:15:00,52.1,48.4,30.02,SE,136,8.6,-999.0,86,0.00,,,0.00,SSEC-RIG,2013-09-24 13:15:00,
2013-09-24 08:20:00,52.6,48.9,30.02,SE,137,7.2,-999.0,86,0.00,,,0.00,SSEC-RIG,2013-09-24 13:20:00,
2013-09-24 08:25:00,52.7,48.4,30.02,SE,137,5.8,-999.0,84,0.00,,,0.00,SSEC-RIG,2013-09-24 13:25:00,
2013-09-24 08:30:00,52.8,48.4,30.02,SE,146,6.3,-999.0,84,0.00,,,0.00,SSEC-RIG,2013-09-24 13:30:00,
2013-09-24 08:35:00,52.9,48.6,30.02,SSE,152,6.9,-999.0,84,0.00,,,0.00,SSEC-RIG,2013-09-24 13:35:00,
2013-09-24 08:40:00,53.2,48.5,30.02,SSE,152,4.3,-999.0,83,0.00,,,0.00,SSEC-RIG,2013-09-24 13:40:00,
2013-09-24 08:45:00,53.4,48.5,30.02,SSE,157,5.6,-999.0,82,0.00,,,0.00,SSEC-RIG,2013-09-24 13:45:00,
2013-09-24 08:50:00,53.6,48.3,30.02,SE,141,5.2,-999.0,81,0.00,,,0.00,SSEC-RIG,2013-09-24 13:50:00,
2013-09-24 08:55:00,54.2,48.5,30.02,SSE,164,6.9,-999.0,80,0.00,,,0.00,SSEC-RIG,2013-09-24 13:55:00,
2013-09-24 09:00:00,54.5,48.8,30.02,SE,140,6.0,-999.0,80,0.00,,,0.00,SSEC-RIG,2013-09-24 14:00:00,
2013-09-24 09:05:00,54.7,48.8,30.02,SE,145,6.6,-999.0,80,0.00,,,0.00,SSEC-RIG,2013-09-24 14:05:00,
2013-09-24 09:10:00,55.1,48.5,30.02,SE,145,8.6,-999.0,78,0.00,,,0.00,SSEC-RIG,2013-09-24 14:10:00,
2013-09-24 09:15:00,55.3,48.4,30.02,SSE,151,7.7,-999.0,77,0.00,,,0.00,SSEC-RIG,2013-09-24 14:15:00,
2013-09-24 09:20:00,55.9,48.6,30.02,SE,145,4.8,-999.0,76,0.00,,,0.00,SSEC-RIG,2013-09-24 14:20:00,
2013-09-24 09:25:00,56.4,49.8,30.02,SE,129,6.5,-999.0,78,0.00,,,0.00,SSEC-RIG,2013-09-24 14:25:00,
2013-09-24 09:30:00,56.1,49.1,30.02,SE,145,6.6,-999.0,76,0.00,,,0.00,SSEC-RIG,2013-09-24 14:30:00,
2013-09-24 09:35:00,56.8,49.4,30.02,SE,135,5.4,-999.0,75,0.00,,,0.00,SSEC-RIG,2013-09-24 14:35:00,
2013-09-24 09:40:00,56.8,49.9,30.02,SSE,148,7.2,-999.0,77,0.00,,,0.00,SSEC-RIG,2013-09-24 14:40:00,
2013-09-24 09:45:00,56.8,49.5,30.02,SE,137,6.8,-999.0,75,0.00,,,0.00,SSEC-RIG,2013-09-24 14:45:00,
2013-09-24 09:50:00,57.5,49.5,30.02,SE,129,5.8,-999.0,74,0.00,,,0.00,SSEC-RIG,2013-09-24 14:50:00,
2013-09-24 09:55:00,57.8,49.4,30.02,SE,138,5.6,-999.0,73,0.00,,,0.00,SSEC-RIG,2013-09-24 14:55:00,
2013-09-24 10:00:00,57.6,49.3,30.02,SE,124,6.0,-999.0,73,0.00,,,0.00,SSEC-RIG,2013-09-24 15:00:00,
2013-09-24 10:05:00,57.3,49.0,30.02,ESE,123,7.2,-999.0,73,0.00,,,0.00,SSEC-RIG,2013-09-24 15:05:00,
2013-09-24 10:10:00,57.6,49.1,30.01,ESE,122,9.2,-999.0,72,0.00,,,0.00,SSEC-RIG,2013-09-24 15:10:00,
2013-09-24 10:15:00,57.4,49.3,30.01,SE,125,8.7,-999.0,74,0.00,,,0.00,SSEC-RIG,2013-09-24 15:15:00,
2013-09-24 10:20:00,58.5,50.3,30.02,SE,132,7.2,-999.0,73,0.00,,,0.00,SSEC-RIG,2013-09-24 15:20:00,
2013-09-24 10:25:00,58.4,49.6,30.02,ESE,119,7.1,-999.0,71,0.00,,,0.00,SSEC-RIG,2013-09-24 15:25:00,
2013-09-24 10:30:00,58.6,49.3,30.02,ESE,115,6.3,-999.0,70,0.00,,,0.00,SSEC-RIG,2013-09-24 15:30:00,
2013-09-24 10:35:00,59.3,49.8,30.02,SE,134,5.3,-999.0,70,0.00,,,0.00,SSEC-RIG,2013-09-24 15:35:00,
2013-09-24 10:40:00,59.7,50.2,30.02,SE,128,7.2,-999.0,70,0.00,,,0.00,SSEC-RIG,2013-09-24 15:40:00,
2013-09-24 10:45:00,59.7,50.3,30.01,SE,135,7.7,-999.0,70,0.00,,,0.00,SSEC-RIG,2013-09-24 15:45:00,
2013-09-24 10:50:00,59.9,49.8,30.01,SSE,153,6.8,-999.0,68,0.00,,,0.00,SSEC-RIG,2013-09-24 15:50:00,
2013-09-24 10:55:00,60.5,50.4,30.01,SE,145,7.7,-999.0,68,0.00,,,0.00,SSEC-RIG,2013-09-24 15:55:00,
2013-09-24 11:00:00,60.6,50.2,30.01,SE,144,8.8,-999.0,68,0.00,,,0.00,SSEC-RIG,2013-09-24 16:00:00,
2013-09-24 11:05:00,61.4,50.5,30.01,SE,129,8.4,-999.0,67,0.00,,,0.00,SSEC-RIG,2013-09-24 16:05:00,
2013-09-24 11:10:00,61.4,49.6,30.01,ESE,123,7.7,-999.0,64,0.00,,,0.00,SSEC-RIG,2013-09-24 16:10:00,
2013-09-24 11:15:00,62.2,50.6,30.00,SE,146,8.5,-999.0,65,0.00,,,0.00,SSEC-RIG,2013-09-24 16:15:00,
2013-09-24 11:20:00,63.0,51.7,30.00,SE,135,7.4,-999.0,66,0.00,,,0.00,SSEC-RIG,2013-09-24 16:20:00,
2013-09-24 11:25:00,62.4,49.8,30.00,ESE,123,8.3,-999.0,63,0.00,,,0.00,SSEC-RIG,2013-09-24 16:25:00,
2013-09-24 11:30:00,62.4,49.6,30.00,ESE,116,8.1,-999.0,62,0.00,,,0.00,SSEC-RIG,2013-09-24 16:30:00,
2013-09-24 11:35:00,62.7,50.1,30.00,ESE,122,7.2,-999.0,62,0.00,,,0.00,SSEC-RIG,2013-09-24 16:35:00,
2013-09-24 11:40:00,64.0,50.1,30.00,ESE,117,5.2,-999.0,60,0.00,,,0.00,SSEC-RIG,2013-09-24 16:40:00,
2013-09-24 11:45:00,63.9,50.1,30.00,SE,127,5.9,-999.0,60,0.00,,,0.00,SSEC-RIG,2013-09-24 16:45:00,
2013-09-24 11:50:00,64.2,50.2,29.99,SE,129,9.7,-999.0,60,0.00,,,0.00,SSEC-RIG,2013-09-24 16:50:00,
2013-09-24 11:55:00,63.6,49.7,29.99,ESE,123,9.9,-999.0,59,0.00,,,0.00,SSEC-RIG,2013-09-24 16:55:00,
2013-09-24 12:00:00,64.1,49.8,29.99,ESE,118,8.8,-999.0,59,0.00,,,0.00,SSEC-RIG,2013-09-24 17:00:00,
2013-09-24 12:05:00,64.9,50.1,29.99,SE,133,9.4,-999.0,58,0.00,,,0.00,SSEC-RIG,2013-09-24 17:05:00,
2013-09-24 12:10:00,65.2,49.7,29.99,SE,131,8.4,-999.0,56,0.00,,,0.00,SSEC-RIG,2013-09-24 17:10:00,
2013-09-24 12:15:00,64.6,49.2,29.99,ESE,123,8.8,-999.0,57,0.00,,,0.00,SSEC-RIG,2013-09-24 17:15:00,
2013-09-24 12:20:00,65.2,50.2,29.99,SE,136,8.2,-999.0,57,0.00,,,0.00,SSEC-RIG,2013-09-24 17:20:00,
2013-09-24 12:25:00,65.6,49.9,29.98,SE,140,9.3,-999.0,56,0.00,,,0.00,SSEC-RIG,2013-09-24 17:25:00,
2013-09-24 12:30:00,65.9,49.6,29.99,SE,136,7.8,-999.0,55,0.00,,,0.00,SSEC-RIG,2013-09-24 17:30:00,
2013-09-24 12:35:00,65.9,49.4,29.99,SE,136,6.3,-999.0,54,0.00,,,0.00,SSEC-RIG,2013-09-24 17:35:00,
2013-09-24 12:40:00,66.8,48.3,29.98,SE,129,8.3,-999.0,51,0.00,,,0.00,SSEC-RIG,2013-09-24 17:40:00,
2013-09-24 12:45:00,66.5,48.2,29.98,SSE,157,9.2,17.0,51,0.00,,,0.00,SSEC-RIG,2013-09-24 17:45:00,
2013-09-24 12:50:00,65.8,47.2,29.98,SE,136,11.7,-999.0,50,0.00,,,0.00,SSEC-RIG,2013-09-24 17:50:00,
2013-09-24 12:55:00,66.2,47.7,29.98,SE,139,13.7,18.5,50,0.00,,,0.00,SSEC-RIG,2013-09-24 17:55:00,
2013-09-24 13:00:00,66.5,48.1,29.98,SE,128,11.9,16.0,51,0.00,,,0.00,SSEC-RIG,2013-09-24 18:00:00,
2013-09-24 13:05:00,66.3,47.8,29.98,SE,140,11.9,18.7,50,0.00,,,0.00,SSEC-RIG,2013-09-24 18:05:00,
2013-09-24 13:10:00,66.4,47.2,29.98,ESE,123,11.0,-999.0,49,0.00,,,0.00,SSEC-RIG,2013-09-24 18:10:00,
2013-09-24 13:15:00,66.3,46.7,29.98,SE,126,13.0,17.0,49,0.00,,,0.00,SSEC-RIG,2013-09-24 18:15:00,
2013-09-24 13:20:00,66.8,47.9,29.98,SSE,147,9.5,-999.0,50,0.00,,,0.00,SSEC-RIG,2013-09-24 18:20:00,
2013-09-24 13:25:00,67.3,48.1,29.98,SE,144,7.7,-999.0,49,0.00,,,0.00,SSEC-RIG,2013-09-24 18:25:00,
2013-09-24 13:30:00,66.9,47.8,29.98,SE,141,9.2,-999.0,49,0.00,,,0.00,SSEC-RIG,2013-09-24 18:30:00,
2013-09-24 13:35:00,66.4,47.3,29.98,ESE,123,8.3,-999.0,50,0.00,,,0.00,SSEC-RIG,2013-09-24 18:35:00,
2013-09-24 13:40:00,67.3,48.7,29.97,SE,138,8.2,-999.0,51,0.00,,,0.00,SSEC-RIG,2013-09-24 18:40:00,
2013-09-24 13:45:00,67.4,48.6,29.97,SE,135,10.8,-999.0,50,0.00,,,0.00,SSEC-RIG,2013-09-24 18:45:00,
2013-09-24 13:50:00,67.2,48.2,29.97,SE,127,10.0,-999.0,50,0.00,,,0.00,SSEC-RIG,2013-09-24 18:50:00,
2013-09-24 13:55:00,67.2,47.4,29.97,SE,129,6.2,-999.0,48,0.00,,,0.00,SSEC-RIG,2013-09-24 18:55:00,
2013-09-24 14:00:00,67.3,47.3,29.97,SSE,151,9.7,-999.0,48,0.00,,,0.00,SSEC-RIG,2013-09-24 19:00:00,
2013-09-24 14:05:00,67.3,49.0,29.97,SE,140,9.4,-999.0,51,0.00,,,0.00,SSEC-RIG,2013-09-24 19:05:00,
2013-09-24 14:10:00,67.7,47.6,29.97,SSE,161,7.9,-999.0,48,0.00,,,0.00,SSEC-RIG,2013-09-24 19:10:00,
2013-09-24 14:15:00,67.9,48.6,29.96,SE,139,9.3,-999.0,49,0.00,,,0.00,SSEC-RIG,2013-09-24 19:15:00,
2013-09-24 14:20:00,68.1,47.1,29.96,SSE,147,8.3,-999.0,46,0.00,,,0.00,SSEC-RIG,2013-09-24 19:20:00,
2013-09-24 14:25:00,68.1,46.9,29.96,SSE,165,7.1,-999.0,46,0.00,,,0.00,SSEC-RIG,2013-09-24 19:25:00,
2013-09-24 14:30:00,68.3,47.1,29.96,SSE,159,9.8,-999.0,46,0.00,,,0.00,SSEC-RIG,2013-09-24 19:30:00,
2013-09-24 14:35:00,68.1,47.4,29.96,SSE,162,8.5,-999.0,47,0.00,,,0.00,SSEC-RIG,2013-09-24 19:35:00,
2013-09-24 14:40:00,68.0,46.8,29.95,SE,146,10.3,-999.0,46,0.00,,,0.00,SSEC-RIG,2013-09-24 19:40:00,
2013-09-24 14:45:00,68.1,47.9,29.95,SE,135,9.3,-999.0,48,0.00,,,0.00,SSEC-RIG,2013-09-24 19:45:00,
2013-09-24 14:50:00,68.3,47.2,29.95,SE,124,7.6,-999.0,46,0.00,,,0.00,SSEC-RIG,2013-09-24 19:50:00,
2013-09-24 14:55:00,68.6,47.5,29.95,SE,137,9.9,-999.0,46,0.00,,,0.00,SSEC-RIG,2013-09-24 19:55:00,
2013-09-24 15:00:00,67.9,46.0,29.95,SSE,148,10.8,-999.0,45,0.00,,,0.00,SSEC-RIG,2013-09-24 20:00:00,
2013-09-24 15:05:00,68.4,46.6,29.95,SE,132,8.8,-999.0,45,0.00,,,0.00,SSEC-RIG,2013-09-24 20:05:00,
2013-09-24 15:15:00,68.4,46.5,29.95,ESE,113,6.7,-999.0,45,0.00,,,0.00,SSEC-RIG,2013-09-24 20:15:00,
2013-09-24 15:20:00,68.8,47.1,29.94,ESE,119,6.6,-999.0,45,0.00,,,0.00,SSEC-RIG,2013-09-24 20:20:00,
2013-09-24 15:25:00,69.1,49.5,29.94,SE,137,6.5,-999.0,49,0.00,,,0.00,SSEC-RIG,2013-09-24 20:25:00,
2013-09-24 15:30:00,68.7,47.2,29.94,ESE,123,10.5,-999.0,45,0.00,,,0.00,SSEC-RIG,2013-09-24 20:30:00,
2013-09-24 15:35:00,68.4,47.4,29.94,SE,129,9.6,-999.0,46,0.00,,,0.00,SSEC-RIG,2013-09-24 20:35:00,
2013-09-24 15:40:00,69.3,49.0,29.94,SE,138,7.6,-999.0,48,0.00,,,0.00,SSEC-RIG,2013-09-24 20:40:00,
2013-09-24 15:45:00,69.4,48.9,29.94,ESE,123,7.3,-999.0,47,0.00,,,0.00,SSEC-RIG,2013-09-24 20:45:00,
2013-09-24 15:55:00,69.1,48.1,29.94,ESE,116,10.8,-999.0,46,0.00,,,0.00,SSEC-RIG,2013-09-24 20:55:00,
2013-09-24 16:00:00,68.9,46.9,29.94,ESE,110,8.4,-999.0,44,0.00,,,0.00,SSEC-RIG,2013-09-24 21:00:00,
2013-09-24 16:05:00,69.2,47.8,29.94,ESE,122,8.1,-999.0,46,0.00,,,0.00,SSEC-RIG,2013-09-24 21:05:00,
2013-09-24 16:10:00,68.7,48.0,29.93,SE,124,8.2,-999.0,47,0.00,,,0.00,SSEC-RIG,2013-09-24 21:10:00,
2013-09-24 16:15:00,69.0,47.7,29.93,ESE,111,7.4,-999.0,46,0.00,,,0.00,SSEC-RIG,2013-09-24 21:15:00,
2013-09-24 16:20:00,69.3,49.0,29.93,ESE,122,8.0,-999.0,48,0.00,,,0.00,SSEC-RIG,2013-09-24 21:20:00,
2013-09-24 16:25:00,69.6,49.3,29.93,SE,129,9.0,-999.0,48,0.00,,,0.00,SSEC-RIG,2013-09-24 21:25:00,
2013-09-24 16:30:00,69.4,49.6,29.93,ESE,123,9.5,-999.0,49,0.00,,,0.00,SSEC-RIG,2013-09-24 21:30:00,
2013-09-24 16:35:00,68.8,48.5,29.93,ESE,113,8.7,-999.0,47,0.00,,,0.00,SSEC-RIG,2013-09-24 21:35:00,
2013-09-24 16:40:00,69.2,49.3,29.93,ESE,109,8.9,-999.0,48,0.00,,,0.00,SSEC-RIG,2013-09-24 21:40:00,
2013-09-24 16:45:00,69.3,49.9,29.93,ESE,118,8.4,-999.0,49,0.00,,,0.00,SSEC-RIG,2013-09-24 21:45:00,
2013-09-24 16:50:00,69.0,49.5,29.93,ESE,121,8.7,-999.0,49,0.00,,,0.00,SSEC-RIG,2013-09-24 21:50:00,
2013-09-24 16:55:00,69.0,50.0,29.93,ESE,111,9.3,-999.0,50,0.00,,,0.00,SSEC-RIG,2013-09-24 21:55:00,
2013-09-24 17:00:00,68.9,50.3,29.93,ESE,107,10.3,-999.0,51,0.00,,,0.00,SSEC-RIG,2013-09-24 22:00:00,
2013-09-24 17:05:00,69.1,50.1,29.93,ESE,111,9.2,-999.0,50,0.00,,,0.00,SSEC-RIG,2013-09-24 22:05:00,
2013-09-24 17:10:00,69.0,50.3,29.93,ESE,107,8.8,-999.0,50,0.00,,,0.00,SSEC-RIG,2013-09-24 22:10:00,
2013-09-24 17:15:00,69.1,50.5,29.93,East,101,10.6,-999.0,51,0.00,,,0.00,SSEC-RIG,2013-09-24 22:15:00,
2013-09-24 17:20:00,68.8,50.1,29.93,East,96,13.8,16.5,50,0.00,,,0.00,SSEC-RIG,2013-09-24 22:20:00,
2013-09-24 17:25:00,68.8,50.1,29.93,East,89,11.6,-999.0,50,0.00,,,0.00,SSEC-RIG,2013-09-24 22:25:00,
2013-09-24 17:30:00,68.8,49.8,29.93,East,81,10.8,-999.0,50,0.00,,,0.00,SSEC-RIG,2013-09-24 22:30:00,
2013-09-24 17:35:00,68.9,50.1,29.93,East,98,10.6,-999.0,50,0.00,,,0.00,SSEC-RIG,2013-09-24 22:35:00,
2013-09-24 17:40:00,68.7,49.5,29.93,East,90,12.5,17.8,50,0.00,,,0.00,SSEC-RIG,2013-09-24 22:40:00,
2013-09-24 17:45:00,68.3,49.1,29.93,East,88,15.2,17.5,49,0.00,,,0.00,SSEC-RIG,2013-09-24 22:45:00,
2013-09-24 17:50:00,68.2,49.4,29.93,East,86,13.1,16.4,50,0.00,,,0.00,SSEC-RIG,2013-09-24 22:50:00,
2013-09-24 17:55:00,68.2,49.6,29.93,East,93,12.8,-999.0,50,0.00,,,0.00,SSEC-RIG,2013-09-24 22:55:00,
2013-09-24 18:00:00,68.1,49.6,29.93,East,95,10.9,-999.0,51,0.00,,,0.00,SSEC-RIG,2013-09-24 23:00:00,
2013-09-24 18:10:00,67.9,49.8,29.93,East,97,11.7,16.2,52,0.00,,,0.00,SSEC-RIG,2013-09-24 23:10:00,
2013-09-24 18:15:00,67.7,49.8,29.93,East,96,12.7,-999.0,52,0.00,,,0.00,SSEC-RIG,2013-09-24 23:15:00,
2013-09-24 18:25:00,67.5,50.3,29.93,East,99,8.5,-999.0,53,0.00,,,0.00,SSEC-RIG,2013-09-24 23:25:00,
2013-09-24 18:30:00,67.0,50.1,29.93,East,94,13.5,19.1,54,0.00,,,0.00,SSEC-RIG,2013-09-24 23:30:00,
2013-09-24 18:35:00,66.4,50.2,29.93,East,91,13.7,18.7,55,0.00,,,0.00,SSEC-RIG,2013-09-24 23:35:00,
2013-09-24 18:40:00,66.0,50.3,29.94,East,96,13.2,16.8,56,0.00,,,0.00,SSEC-RIG,2013-09-24 23:40:00,
2013-09-24 18:45:00,65.7,50.3,29.93,East,92,12.6,17.5,57,0.00,,,0.00,SSEC-RIG,2013-09-24 23:45:00,
2013-09-24 18:50:00,65.4,50.4,29.94,East,96,13.3,20.1,57,0.00,,,0.00,SSEC-RIG,2013-09-24 23:50:00,
2013-09-24 18:55:00,65.1,50.4,29.94,East,98,12.3,18.7,58,0.00,,,0.00,SSEC-RIG,2013-09-24 23:55:00,
2013-09-24 19:00:00,64.9,50.3,29.93,East,99,12.9,17.0,58,0.00,,,0.00,SSEC-RIG,2013-09-25 00:00:00,
2013-09-24 19:05:00,64.5,50.1,29.93,East,99,14.7,17.9,59,0.00,,,0.00,SSEC-RIG,2013-09-25 00:05:00,
2013-09-24 19:15:00,64.1,50.1,29.94,ESE,102,11.0,-999.0,59,0.00,,,0.00,SSEC-RIG,2013-09-25 00:15:00,
2013-09-24 19:20:00,63.7,49.9,29.93,East,100,14.5,17.1,60,0.00,,,0.00,SSEC-RIG,2013-09-25 00:20:00,
2013-09-24 19:25:00,63.6,50.2,29.94,ESE,102,11.3,16.8,61,0.00,,,0.00,SSEC-RIG,2013-09-25 00:25:00,
2013-09-24 19:30:00,63.4,50.4,29.94,East,95,9.5,-999.0,62,0.00,,,0.00,SSEC-RIG,2013-09-25 00:30:00,
2013-09-24 19:35:00,63.0,50.0,29.94,ESE,102,15.2,18.8,62,0.00,,,0.00,SSEC-RIG,2013-09-25 00:35:00,
2013-09-24 19:40:00,62.6,50.0,29.94,ESE,103,14.3,19.4,62,0.00,,,0.00,SSEC-RIG,2013-09-25 00:40:00,
2013-09-24 19:45:00,62.4,50.0,29.94,ESE,105,13.9,17.5,63,0.00,,,0.00,SSEC-RIG,2013-09-25 00:45:00,
2013-09-24 19:50:00,62.1,50.1,29.94,ESE,104,12.6,16.1,64,0.00,,,0.00,SSEC-RIG,2013-09-25 00:50:00,
2013-09-24 19:55:00,61.9,50.2,29.94,ESE,109,12.5,18.0,65,0.00,,,0.00,SSEC-RIG,2013-09-25 00:55:00,
2013-09-24 20:00:00,61.5,50.1,29.94,ESE,110,12.7,16.4,65,0.00,,,0.00,SSEC-RIG,2013-09-25 01:00:00,
2013-09-24 20:05:00,61.3,50.0,29.95,ESE,110,12.6,18.0,66,0.00,,,0.00,SSEC-RIG,2013-09-25 01:05:00,
2013-09-24 20:10:00,61.0,50.1,29.95,ESE,113,12.0,17.8,66,0.00,,,0.00,SSEC-RIG,2013-09-25 01:10:00,
2013-09-24 20:15:00,60.7,49.8,29.95,ESE,115,15.6,18.0,66,0.00,,,0.00,SSEC-RIG,2013-09-25 01:15:00,
2013-09-24 20:20:00,60.5,50.0,29.96,ESE,122,12.7,-999.0,67,0.00,,,0.00,SSEC-RIG,2013-09-25 01:20:00,
2013-09-24 20:25:00,60.5,50.2,29.96,ESE,121,9.3,-999.0,68,0.00,,,0.00,SSEC-RIG,2013-09-25 01:25:00,
2013-09-24 20:30:00,60.2,50.1,29.96,ESE,120,12.6,16.7,68,0.00,,,0.00,SSEC-RIG,2013-09-25 01:30:00,
2013-09-24 20:35:00,59.9,50.1,29.96,ESE,121,12.6,16.6,69,0.00,,,0.00,SSEC-RIG,2013-09-25 01:35:00,
2013-09-24 20:40:00,59.7,50.1,29.96,ESE,115,12.9,-999.0,69,0.00,,,0.00,SSEC-RIG,2013-09-25 01:40:00,
2013-09-24 20:45:00,59.5,50.0,29.96,ESE,119,13.2,16.9,70,0.00,,,0.00,SSEC-RIG,2013-09-25 01:45:00,
2013-09-24 20:55:00,59.2,49.9,29.96,ESE,116,12.8,17.5,70,0.00,,,0.00,SSEC-RIG,2013-09-25 01:55:00,
2013-09-24 21:00:00,59.0,49.9,29.96,ESE,118,12.7,16.9,71,0.00,,,0.00,SSEC-RIG,2013-09-25 02:00:00,
2013-09-24 21:05:00,58.8,50.0,29.96,ESE,113,11.0,-999.0,72,0.00,,,0.00,SSEC-RIG,2013-09-25 02:05:00,
2013-09-24 21:10:00,58.6,50.0,29.96,ESE,118,11.5,16.4,72,0.00,,,0.00,SSEC-RIG,2013-09-25 02:10:00,
2013-09-24 21:15:00,58.4,50.0,29.96,ESE,114,11.8,16.3,73,0.00,,,0.00,SSEC-RIG,2013-09-25 02:15:00,
2013-09-24 21:20:00,58.3,50.1,29.96,ESE,113,10.2,-999.0,73,0.00,,,0.00,SSEC-RIG,2013-09-25 02:20:00,
2013-09-24 21:25:00,58.0,50.1,29.96,ESE,116,11.9,-999.0,74,0.00,,,0.00,SSEC-RIG,2013-09-25 02:25:00,
2013-09-24 21:30:00,57.8,50.1,29.96,ESE,113,12.9,16.8,74,0.00,,,0.00,SSEC-RIG,2013-09-25 02:30:00,
2013-09-24 21:35:00,57.7,50.1,29.96,ESE,112,11.6,16.0,75,0.00,,,0.00,SSEC-RIG,2013-09-25 02:35:00,
2013-09-24 21:40:00,57.5,50.0,29.96,ESE,117,10.5,-999.0,75,0.00,,,0.00,SSEC-RIG,2013-09-25 02:40:00,
2013-09-24 21:45:00,57.4,50.1,29.96,ESE,116,10.5,-999.0,75,0.00,,,0.00,SSEC-RIG,2013-09-25 02:45:00,
2013-09-24 21:50:00,57.3,50.1,29.96,ESE,114,12.0,17.5,76,0.00,,,0.00,SSEC-RIG,2013-09-25 02:50:00,
2013-09-24 21:55:00,57.1,50.1,29.96,ESE,111,10.2,-999.0,76,0.00,,,0.00,SSEC-RIG,2013-09-25 02:55:00,
2013-09-24 22:00:00,57.0,50.1,29.96,ESE,110,10.4,-999.0,76,0.00,,,0.00,SSEC-RIG,2013-09-25 03:00:00,
2013-09-24 22:05:00,56.9,50.1,29.96,ESE,112,11.1,-999.0,77,0.00,,,0.00,SSEC-RIG,2013-09-25 03:05:00,
2013-09-24 22:10:00,56.7,50.1,29.96,ESE,111,12.0,16.4,78,0.00,,,0.00,SSEC-RIG,2013-09-25 03:10:00,
2013-09-24 22:20:00,56.5,50.2,29.96,ESE,111,12.3,-999.0,78,0.00,,,0.00,SSEC-RIG,2013-09-25 03:20:00,
2013-09-24 22:25:00,56.5,50.3,29.96,ESE,115,10.0,-999.0,79,0.00,,,0.00,SSEC-RIG,2013-09-25 03:25:00,
2013-09-24 22:30:00,56.4,50.4,29.96,ESE,111,8.2,-999.0,79,0.00,,,0.00,SSEC-RIG,2013-09-25 03:30:00,
2013-09-24 22:35:00,56.3,50.4,29.96,ESE,118,7.8,-999.0,79,0.00,,,0.00,SSEC-RIG,2013-09-25 03:35:00,
2013-09-24 22:40:00,56.1,50.5,29.96,SE,125,6.7,-999.0,81,0.00,,,0.00,SSEC-RIG,2013-09-25 03:40:00,
2013-09-24 22:45:00,56.1,50.4,29.96,ESE,116,6.1,-999.0,80,0.00,,,0.00,SSEC-RIG,2013-09-25 03:45:00,
2013-09-24 22:50:00,56.0,50.4,29.96,ESE,114,7.5,-999.0,80,0.00,,,0.00,SSEC-RIG,2013-09-25 03:50:00,
2013-09-24 22:55:00,56.0,50.3,29.96,ESE,112,8.4,-999.0,80,0.00,,,0.00,SSEC-RIG,2013-09-25 03:55:00,
2013-09-24 23:00:00,56.0,50.2,29.96,ESE,115,7.0,-999.0,80,0.00,,,0.00,SSEC-RIG,2013-09-25 04:00:00,
2013-09-24 23:05:00,55.8,50.1,29.96,ESE,109,9.8,-999.0,80,0.00,,,0.00,SSEC-RIG,2013-09-25 04:05:00,
2013-09-24 23:10:00,55.8,50.2,29.95,ESE,109,9.3,-999.0,80,0.00,,,0.00,SSEC-RIG,2013-09-25 04:10:00,
2013-09-24 23:15:00,55.6,50.2,29.95,ESE,114,10.6,-999.0,81,0.00,,,0.00,SSEC-RIG,2013-09-25 04:15:00,
2013-09-24 23:20:00,55.6,50.3,29.95,ESE,114,9.1,-999.0,81,0.00,,,0.00,SSEC-RIG,2013-09-25 04:20:00,
2013-09-24 23:25:00,55.5,50.2,29.95,ESE,115,10.7,-999.0,81,0.00,,,0.00,SSEC-RIG,2013-09-25 04:25:00,
2013-09-24 23:30:00,55.3,50.3,29.95,ESE,121,11.5,-999.0,82,0.00,,,0.00,SSEC-RIG,2013-09-25 04:30:00,
2013-09-24 23:35:00,55.2,50.4,29.95,ESE,119,9.1,-999.0,83,0.00,,,0.00,SSEC-RIG,2013-09-25 04:35:00,
2013-09-24 23:40:00,55.1,50.4,29.95,ESE,121,9.8,-999.0,83,0.00,,,0.00,SSEC-RIG,2013-09-25 04:40:00,
2013-09-24 23:45:00,55.0,50.3,29.95,ESE,118,10.2,-999.0,83,0.00,,,0.00,SSEC-RIG,2013-09-25 04:45:00,
2013-09-24 23:50:00,55.0,50.2,29.95,ESE,122,10.2,-999.0,83,0.00,,,0.00,SSEC-RIG,2013-09-25 04:50:00,
2013-09-24 23:55:00,54.9,50.0,29.96,ESE,123,10.1,-999.0,83,0.00,,,0.00,SSEC-RIG,2013-09-25 04:55:00,